sat.trackr.live / text

‹ back to catalog

GOMX-1

NORAD 39430 · 2013-066Q

PAYLOAD ACTIVE UNKNOWN

§ Identity

Operator
Country
DEN
Launch date
2013-11-21
Launch site
DLS
Launch vehicle
Mass (kg)
RCS (m²)
0.05

Purposes: comms, tech_demo

External: N2YO · Heavens-Above · Gunter

§ Orbital elements

Epoch: 2026-09-20T04:02:26.131200Z

Period
97.98 min
Inclination
97.6439°
Eccentricity
0.0128912
Mean motion
14.69709394 rev/d
Perigee alt
571.2 km
Apogee alt
752.8 km
Semi-major
7,040.1 km
B*
1.9453e-4
RAAN
97.6452°
Arg perigee
131.7046°
Mean anomaly
229.5275°
Rev number
68,386

§ Raw data

GOMX-11 39430U 13066Q   26263.16835800  .00001266  00000+0  19453-3 0  99942 39430  97.6439  97.6452 0128912 131.7046 229.5275 14.69709394683862

JSON: /api/v1/satellites/39430 · /tle

For live sub-satellite position, see the globe view (requires WebGL).

§ Visibility from observer

Set your observer location to see the next 7 days of passes ≥ 10°. The values pass through the URL so the page stays shareable.

No JS? Fill the form by hand. The geolocation button needs JavaScript.

§ Radio — SatNOGS DB

ModeDescriptionDownlinkUplink
GMSK 4k8 GMSK 437.250 MHz
FM Mode X (8MHz) 8.198 GHz
CW PE0SAT - CW Beacon (inactive) 437.253 MHz

3 transmitters · refreshed weekly from db.satnogs.org